FENGYUN 1C DEB, 30716

Orbit data source: Space-Track

FENGYUN 1C DEB, 30716 is space debris in SSO originally from a launch on Mon, 10 May 1999 UTC launched from the Taiyaun Space Center, China (TSC). Fengyun 1C debris stems from the Chinese weather satellite Fengyun-1C, which was intentionally destroyed by a Chinese anti-satellite missile in 2007. This event dramatically increased the amount of space debris, with thousands of trackable fragments posing hazards to satellites and human spaceflight. The Fengyun 1C debris cloud has become a focal point in discussions about space sustainability and the need for international regulations to prevent the creation of new debris.

Loading next visibility...
Identifier
30716, 1999-025ASA
Orbit
SSO
Country
Flag of CNCN / PRC
Related business
Manufacturer
Unknown
Mission
Spacecraft
Bus & Motor
Unknown
Mass
Unknown
Launch date (UTC)
1999-05-10 (27 years ago)
Launch vehicle
Unknown
Launch site
Taiyaun Space Center, China (TSC)
Object type
Payload
Rocket body
Debris
Shape & HBR
Unknown shape, 0.1 m
Radar Cross Section
Medium (>0.1 m² and <1 m²)

Expand to show TLE details & history
Last TLE update: 9 hours ago

TLE from 9 hours ago
0 FENGYUN 1C DEB
1 30716U 99025ASA 26256.88155660  .00024867  00000-0  22268-2 0  9991
2 30716  98.8557 117.3806 0014049 296.7380 184.8278 14.95739237 19154
Epoch: 2026-09-13T21:09Z
TLE epoch observation values (Epoch: 2026-09-13T21:09:26.490Z)
Latitude
57.45507°
Longitude
1.20293°
Altitude
599.464 km
Speed
7.56 km/s
True Right ascension
20h 45m 43s
True Declination
57° 17' 43"
Sunlit
Object was in daylight at epoch
Visualization orbit readout
Latitude
Unknown
Longitude
Unknown
Altitude
Unknown
Speed
Unknown
Apparent Right ascension
Unknown
Apparent Declination
Unknown
Sunlit
N/A
Visualization observer readout
Local Sidereal Time
23:06:14
Azimuth
Unknown
Elevation
Unknown
Doppler factor
Unknown
Orbital elements
Apogee altitude
586.916 km
Perigee altitude
567.373 km
Semi-major axis
6,955.282 km
Eccentricity
0.0014
Inclination
98.8557°
RAAN
117.3806°
Arg. of periapsis
296.738°
True anomaly
184.81427°
Mean anomaly
184.8278°
Eccentric anomaly
184.82103°
Mean motion
3.74172 °/min
Orbital period
96.21 mins
BSTAR
0.0022268
Loading maneuver chart data...
Computing Atmospheric mass density...
Loading historical data...
Loading historical data...
Loading historical data...
Loading historical data...
Loading historical data...
Loading historical data...
Loading historical data...

Documentation

Showing up to 5 results
|